EA2BJM-15 Weather Reports


Display with metric or nautical units.
time (UTC)temp
F
wind
direction
speed
MPH
gust
MPH
rain 1hr
in
rain 24hr
in
rain mn
in
humidity
%
barometer
mb
20260510151645 67 0 0.0 0.0 0.00 0.00 0.00 57 1011.8
20260510150145 67 0 0.0 0.0 0.00 0.00 0.00 54 1010.8
20260510133307 73 0 0.0 0.0 0.00 0.00 0.00 33 1010.8
20260510131807 74 0 0.0 0.0 0.00 0.00 0.00 23 1009.8
20260510130307 74 0 0.0 0.0 0.00 0.00 0.00 23 1009.8
20260510124807 75 0 0.0 0.0 0.00 0.00 0.00 22 1009.8
20260510123309 76 0 0.0 0.0 0.00 0.00 0.00 22 1010.8
20260510121810 77 0 0.0 0.0 0.00 0.00 0.00 21 1010.8
20260510120310 76 0 0.0 0.0 0.00 0.00 0.00 21 1010.8
20260510114810 76 0 0.0 0.0 0.00 0.00 0.00 22 1010.8
20260510113309 76 0 0.0 0.0 0.00 0.00 0.00 22 1011.8
20260510100327 76 0 0.0 0.0 0.00 0.00 0.00 23 1011.8
20260510094827 76 0 0.0 0.0 0.00 0.00 0.00 23 1011.8
20260510093327 75 0 0.0 0.0 0.00 0.00 0.00 24 1011.8
20260510091827 74 0 0.0 0.0 0.00 0.00 0.00 25 1012.8
20260510090326 73 0 0.0 0.0 0.00 0.00 0.00 28 1012.8
20260510084826 72 0 0.0 0.0 0.00 0.00 0.00 33 1012.8
20260510083326 72 0 0.0 0.0 0.00 0.00 0.00 34 1012.8
20260510081826 71 0 0.0 0.0 0.00 0.00 0.00 37 1012.8
20260510080326 70 0 0.0 0.0 0.00 0.00 0.00 40 1012.8
20260510074826 69 0 0.0 0.0 0.00 0.00 0.00 42 1012.8
20260510073326 68 0 0.0 0.0 0.00 0.00 0.00 43 1012.8
20260510071827 69 0 0.0 0.0 0.00 0.00 0.00 42 1012.8
20260510070327 67 0 0.0 0.0 0.00 0.00 0.00 44 1012.8
20260510064826 65 0 0.0 0.0 0.00 0.00 0.00 46 1012.8
20260510063326 64 0 0.0 0.0 0.00 0.00 0.00 49 1012.8
20260510061825 62 0 0.0 0.0 0.00 0.00 0.00 52 1012.8
20260510060325 62 0 0.0 0.0 0.00 0.00 0.00 59 1012.8
20260510054827 56 0 0.0 0.0 0.00 0.00 0.00 70 1011.8
20260510053327 56 0 0.0 0.0 0.00 0.00 0.00 72 1011.8
20260510051827 55 0 0.0 0.0 0.00 0.00 0.00 72 1011.8
20260510050327 55 0 0.0 0.0 0.00 0.00 0.00 74 1011.8
20260510044827 55 0 0.0 0.0 0.00 0.00 0.00 73 1011.8
20260510043327 55 0 0.0 0.0 0.00 0.00 0.00 72 1011.8
20260510041826 56 0 0.0 0.0 0.00 0.00 0.00 71 1011.8
20260510040326 56 0 0.0 0.0 0.00 0.00 0.00 70 1011.8
20260510034826 56 0 0.0 0.0 0.00 0.00 0.00 70 1011.8
20260510033326 56 0 0.0 0.0 0.00 0.00 0.00 70 1011.8
20260510031827 57 0 0.0 0.0 0.00 0.00 0.00 69 1011.8
20260510030327 57 0 0.0 0.0 0.00 0.00 0.00 69 1011.8
20260510024827 57 0 0.0 0.0 0.00 0.00 0.00 70 1011.8
20260510023327 57 0 0.0 0.0 0.00 0.00 0.00 70 1011.8
20260510021827 57 0 0.0 0.0 0.00 0.00 0.00 71 1011.8
20260510020326 57 0 0.0 0.0 0.00 0.00 0.00 70 1011.8
20260510014826 58 0 0.0 0.0 0.00 0.00 0.00 70 1011.8
20260510013326 58 0 0.0 0.0 0.00 0.00 0.00 70 1011.8
20260510011826 58 0 0.0 0.0 0.00 0.00 0.00 70 1011.8
20260510010326 58 0 0.0 0.0 0.00 0.00 0.00 69 1011.8
20260510004826 58 0 0.0 0.0 0.00 0.00 0.00 69 1011.8
20260510003326 58 0 0.0 0.0 0.00 0.00 0.00 68 1011.8
20260510001826 58 0 0.0 0.0 0.00 0.00 0.00 68 1011.8
20260510000327 59 0 0.0 0.0 0.00 0.00 0.00 68 1011.8
20260509234827 59 0 0.0 0.0 0.00 0.00 0.00 67 1011.8
20260509233327 59 0 0.0 0.0 0.00 0.00 0.00 67 1011.8
20260509231827 60 0 0.0 0.0 0.00 0.00 0.00 66 1011.8
20260509230327 60 0 0.0 0.0 0.00 0.00 0.00 65 1011.8
20260509224827 60 0 0.0 0.0 0.00 0.00 0.00 65 1011.8
20260509223327 61 0 0.0 0.0 0.00 0.00 0.00 65 1011.8
20260509221827 61 0 0.0 0.0 0.00 0.00 0.00 64 1011.8
20260509220327 61 0 0.0 0.0 0.00 0.00 0.00 62 1011.8
20260509162317 67 0 0.0 0.0 0.00 0.00 0.00 46 1009.8
20260509160818 67 0 0.0 0.0 0.00 0.00 0.00 46 1009.8
20260509155318 68 0 0.0 0.0 0.00 0.00 0.00 46 1009.8
20260509153818 67 0 0.0 0.0 0.00 0.00 0.00 44 1009.8